FW9620 Weather Reports


time (UTC)temp
C
wind
direction
speed
KPH
gust
KPH
rain 1hr
cm
rain 24hr
cm
rain mn
cm
humidity
%
barometer
mb
20260505124557 10 33 24.1 33.8 0.00 0.00 0.00 84 1008.0
20260505123054 10 20 19.3 38.6 0.00 0.00 0.00 85 1007.9
20260505121548 10 34 16.1 33.8 0.00 0.00 0.00 84 1007.2
20260505120055 10 46 9.7 20.9 0.00 0.00 0.00 83 1007.5
20260505114558 10 42 14.5 27.4 0.00 0.00 0.00 82 1007.6
20260505113107 10 24 12.9 24.1 0.00 0.00 0.00 82 1007.6
20260505111553 10 26 14.5 25.7 0.00 0.00 0.00 83 1007.3
20260505101554 12 20 29.0 49.9 0.00 0.00 0.00 81 1007.3
20260505100056 13 17 22.5 40.2 0.00 0.00 0.00 80 1007.6
20260505094552 15 355 30.6 57.9 0.00 0.00 0.00 77 1006.8
20260505093059 17 288 19.3 40.2 0.00 0.00 0.00 77 1006.1
20260505091605 17 257 12.9 22.5 0.00 0.00 0.00 77 1005.5
20260505090050 18 239 11.3 20.9 0.00 0.00 0.00 75 1004.9
20260505084555 18 234 3.2 16.1 0.00 0.00 0.00 73 1003.9
20260505083057 18 207 8.0 22.5 0.00 0.00 0.00 73 1003.7
20260505081555 18 194 8.0 17.7 0.00 0.00 0.00 73 1003.7
20260505080053 18 157 8.0 14.5 0.00 0.00 0.00 74 1004.4
20260505074553 18 147 4.8 9.7 0.00 0.00 0.00 74 1004.6
20260505073057 18 169 4.8 6.4 0.00 0.00 0.00 74 1004.8
20260505071602 18 215 0.0 3.2 0.00 0.00 0.00 73 1005.1
20260505070100 18 0 0.0 0.0 0.00 0.00 0.00 73 1005.2
20260505064552 18 175 0.0 6.4 0.00 0.00 0.00 73 1005.5
20260505063053 18 184 1.6 8.0 0.00 0.00 0.00 73 1005.2
20260505061552 18 196 1.6 12.9 0.00 0.00 0.00 73 1004.9
20260505060053 18 180 4.8 11.3 0.00 0.00 0.00 73 1004.6
20260505054555 17 166 1.6 11.3 0.00 0.00 0.00 73 1004.5
20260505053057 18 168 6.4 14.5 0.00 0.00 0.00 73 1005.0
20260505051606 18 164 0.0 6.4 0.00 0.00 0.00 71 1004.9
20260505041602 20 217 0.0 6.4 0.00 0.00 0.00 67 1005.6
20260505040056 20 204 1.6 9.7 0.00 0.00 0.00 66 1005.6
20260505034554 20 165 6.4 14.5 0.00 0.00 0.00 65 1005.6
20260505033053 21 0 3.2 9.7 0.00 0.00 0.00 63 1005.8
20260505031557 21 158 4.8 12.9 0.00 0.00 0.00 62 1005.8
20260505030058 21 169 8.0 29.0 0.00 0.00 0.00 61 1005.4
20260505024601 21 163 4.8 17.7 0.00 0.00 0.00 60 1005.2
20260505023056 21 190 8.0 14.5 0.00 0.00 0.00 59 1005.1
20260505021558 22 222 3.2 19.3 0.00 0.00 0.00 60 1004.9
20260505020051 22 182 4.8 16.1 0.00 0.00 0.00 60 1004.5
20260505014555 22 173 3.2 14.5 0.00 0.00 0.00 60 1004.2
20260505013107 22 237 8.0 17.7 0.00 0.00 0.00 58 1004.1
20260505011600 22 237 4.8 14.5 0.00 0.00 0.00 58 1004.0
20260505004551 23 220 3.2 12.9 0.00 0.00 0.00 58 1003.7
20260505003056 23 175 4.8 14.5 0.00 0.00 0.00 57 1003.7
20260505001549 23 190 6.4 16.1 0.00 0.00 0.00 55 1003.8
20260505000100 24 196 8.0 20.9 0.00 0.00 0.00 53 1003.8
20260504234552 25 243 6.4 19.3 0.00 0.00 0.00 54 1003.8
20260504233104 25 167 8.0 27.4 0.00 0.00 0.00 54 1003.8
20260504231553 25 214 14.5 25.7 0.00 0.00 0.00 52 1003.9
20260504230100 25 224 11.3 30.6 0.00 0.00 0.00 51 1004.0
20260504224552 26 193 6.4 22.5 0.00 0.00 0.00 53 1003.9
20260504223102 26 192 11.3 24.1 0.00 0.00 0.00 52 1003.9
20260504221555 26 240 14.5 25.7 0.00 0.00 0.00 50 1004.0
20260504220100 26 194 9.7 25.7 0.00 0.00 0.00 51 1004.1
20260504214614 26 234 17.7 38.6 0.00 0.00 0.00 50 1004.1
20260504213125 26 245 17.7 37.0 0.00 0.00 0.00 50 1004.3
20260504211555 26 244 16.1 38.6 0.00 0.00 0.00 49 1004.5
20260504210051 26 167 14.5 33.8 0.00 0.00 0.00 49 1004.4
20260504204601 26 217 19.3 40.2 0.00 0.00 0.00 48 1004.6
20260504203103 26 165 19.3 37.0 0.00 0.00 0.00 49 1004.6
20260504201616 26 200 17.7 40.2 0.00 0.00 0.00 49 1004.7
20260504200054 26 228 16.1 48.3 0.00 0.00 0.00 49 1004.8
20260504194555 26 327 17.7 41.8 0.00 0.00 0.00 48 1004.9
20260504193102 26 187 16.1 38.6 0.00 0.00 0.00 49 1005.1
20260504191601 26 215 17.7 32.2 0.00 0.00 0.00 49 1005.2
20260504190113 26 159 11.3 32.2 0.00 0.00 0.00 48 1005.4
20260504184611 26 85 14.5 40.2 0.00 0.00 0.00 49 1005.5
20260504183050 26 229 22.5 38.6 0.00 0.00 0.00 49 1005.8
20260504181552 25 229 12.9 27.4 0.00 0.00 0.00 50 1005.8
20260504180054 24 235 24.1 48.3 0.00 0.00 0.00 49 1006.0
20260504174549 25 171 14.5 37.0 0.00 0.00 0.00 49 1006.0
20260504173049 25 221 22.5 40.2 0.00 0.00 0.00 49 1006.0
20260504171550 25 246 16.1 35.4 0.00 0.00 0.00 50 1005.8
20260504140113 20 188 16.1 37.0 0.00 0.00 0.00 56 1007.4